[[{"header":{"parameterUnit":"m.s-1","parameterCategory":1,"la1":30.2991,"la2":30.254,"lo1":-89.0895,"lo2":-89.0444,"dy":0.0017,"dx":0.0017,"nx":28,"ny":28,"refTime":"2025-02-24T03:00:00:Z","depth":0,"parameterNumber":2,"parameterNumberName":"U-component_of_WINDS"},"data":[0,0,0,0,0,0,0,0,0,0,0,0,0,0,0,0,0,0,0,0,0,0,0,0,0,0,0,0,0,0,0,0,0,0,0,0,0,0,0,0,0,0,0,0,0,0,0,0,0,0,0,0,0,0,0,0,0,0,-3.6123,-3.6123,0,-3.6098,-3.6097,-3.6097,-3.5923,-3.5919,-3.5915,-3.5911,-3.589,-3.5894,-3.5897,0,0,0,0,0,0,0,0,0,0,0,0,0,-3.6025,-3.6028,-3.6123,-3.6122,-3.6122,-3.6098,-3.6097,-3.6097,-3.5924,-3.5919,-3.5914,-3.5909,-3.5889,-3.5893,-3.5898,0,0,0,0,0,0,0,0,0,0,0,0,0,-3.6041,-3.6029,-3.6123,-3.6033,-3.6024,-3.6098,-3.6097,-3.6097,-3.5925,-3.5919,-3.5912,-3.5906,-3.5888,-3.5893,-3.5898,-3.6058,0,0,-3.5914,-3.5916,0,0,0,0,0,0,0,0,-3.604,-3.6045,-3.6046,-3.6039,-3.603,-3.6007,-3.6055,-3.6084,-3.5927,-3.5963,-3.591,-3.5903,-3.5935,-3.5936,-3.5945,-3.6057,-3.6056,-3.5914,-3.5917,-3.592,-3.5921,0,0,0,0,0,0,0,-3.6039,-3.6045,-3.6113,-3.6047,-3.6037,-3.5995,-3.599,-3.606,-3.5985,-3.5959,-3.5947,-3.5946,-3.5929,-3.5941,-3.5943,-3.6056,-3.5914,-3.5919,-3.5922,-3.5924,-3.6297,-3.6304,0,0,0,0,0,0,-3.605,-3.6045,-3.6114,-3.6112,-3.6019,-3.6002,-3.5996,-3.6021,-3.5984,-3.5972,-3.5951,-3.5938,-3.5935,-3.5938,-3.5942,-3.6127,-3.592,-3.5924,-3.5927,-3.6291,-3.6299,-3.6306,0,0,0,0,0,0,-3.6049,-3.6058,-3.6115,-3.6075,-3.6079,-3.601,-3.6039,-3.6024,-3.6035,-3.5978,-3.5964,-3.5976,-3.593,-3.5935,-3.603,-3.6124,-3.5927,-3.5931,-3.6283,-3.6293,-3.6303,-3.6499,0,0,0,0,0,0,-3.6047,-3.6059,-3.6118,-3.6078,-3.6082,-3.6203,-3.6045,-3.6028,-3.6044,-3.6026,-3.5998,-3.5987,-3.5925,-3.6023,-3.6035,-3.6127,-3.5935,-3.6274,-3.6287,-3.6299,-3.6483,-3.6514,-3.6541,0,0,0,0,0,-3.6044,-3.6175,-3.6122,-3.6131,-3.6154,-3.6208,-3.6211,-3.6135,-3.6052,-3.6111,-3.6074,-3.5988,-3.6111,-3.6034,-3.6046,-3.6142,-3.6268,-3.6283,-3.6298,-3.6471,-3.6508,-3.654,0,0,0,0,0,0,-3.623,-3.6168,-3.6108,-3.623,-3.6226,-3.6179,-3.6252,-3.6178,-3.6198,-3.6181,-3.6088,-3.6083,-3.6193,-3.6176,-3.6092,-3.6294,-3.6175,-3.6193,-3.6301,-3.6337,-3.6365,-3.6367,-3.594,0,0,0,0,0,-3.6285,-3.6333,-3.6276,-3.6389,-3.639,-3.6322,-3.6342,-3.6284,-3.6277,-3.6275,-3.6244,-3.6242,-3.6279,-3.6307,-3.6338,-3.6479,-3.6471,-3.6551,-3.6579,-3.6603,-3.6621,-3.6695,-3.673,-3.6357,-3.6357,-3.6356,0,0,-3.64,-3.6372,-3.6408,-3.6426,-3.6416,-3.6469,-3.6321,-3.6383,-3.6422,-3.6284,-3.6372,-3.635,-3.6341,-3.646,-3.6511,-3.645,-3.6722,-3.6623,-3.6642,-3.6647,-3.6714,-3.6749,-3.6781,-3.6367,-3.6365,-3.6364,0,0,-3.6636,-3.6619,-3.6711,-3.6703,-3.6689,-3.6642,-3.6664,-3.6628,-3.6608,-3.6694,-3.6592,-3.6637,-3.6704,-3.6702,-3.671,-3.6944,-3.6866,-3.6957,-3.7107,-3.718,-3.7209,-3.7235,-3.732,-3.7351,-3.6974,-3.6975,-3.6975,0,-3.6781,-3.6855,-3.6769,-3.6837,-3.6849,-3.6724,-3.6818,-3.6814,-3.6812,-3.6824,-3.6754,-3.6836,-3.6821,-3.6937,-3.6995,-3.7004,-3.7028,-3.696,-3.7212,-3.7237,-3.7259,-3.7339,-3.7371,-3.6986,-3.6985,-3.6983,-3.6982,0,-3.7035,-3.7087,-3.7164,-3.7162,-3.7182,-3.7264,-3.7191,-3.7222,-3.7162,-3.7123,-3.7213,-3.719,-3.7215,-3.7238,-3.7181,-3.7347,-3.731,-3.7228,-3.7106,-3.7308,-3.7381,-3.7411,-3.7002,-3.6998,-3.6995,-3.6992,0,0,-3.739,-3.7338,-3.7368,-3.7365,-3.7339,-3.7379,-3.7455,-3.7477,-3.7506,-3.7508,-3.757,-3.7629,-3.7553,-3.7562,-3.7503,-3.7567,-3.7755,-3.7477,-3.7475,-3.7531,-3.7938,-3.8001,-3.8038,-3.7702,-3.7707,-3.7712,-3.7939,0,-3.7617,-3.7742,-3.7666,-3.7803,-3.7851,-3.7732,-3.7798,-3.779,-3.7756,-3.7793,-3.7755,-3.7799,-3.7694,-3.7699,-3.7756,-3.772,-3.7836,-3.7702,-3.7761,-3.7764,-3.7769,-3.8076,-3.8143,-3.8359,-3.7967,-3.7972,-3.7976,0,-3.79,-3.7912,-3.8054,-3.8017,-3.8035,-3.8095,-3.8109,-3.8146,-3.8135,-3.8105,-3.8115,-3.804,-3.8113,-3.7991,-3.8091,-3.8002,-3.8021,-3.8007,-3.8013,-3.8018,-3.7884,-3.809,-3.8426,-3.8459,-3.802,-3.8016,-3.8013,0,-3.8146,-3.8198,-3.8289,-3.8291,-3.8251,-3.8296,-3.8282,-3.8264,-3.8282,-3.8295,-3.8306,-3.8329,-3.8341,-3.8361,-3.8295,-3.8212,-3.8404,-3.8277,-3.8383,-3.8386,-3.8431,-3.8429,-3.8776,-3.8441,-3.8441,-3.844,-3.8439,0,-3.8409,-3.8501,-3.8399,-3.8456,-3.8555,-3.8467,-3.8568,-3.8541,-3.8526,-3.8576,-3.8475,-3.8525,-3.8434,-3.8475,-3.8423,-3.8515,-3.8521,-3.85,-3.8486,-3.851,-3.8513,-3.8523,-3.8507,-3.8449,-3.8447,-3.8445,-3.8444,0,-3.8702,-3.8637,-3.8729,-3.8683,-3.8673,-3.8749,-3.871,-3.8761,-3.8718,-3.8783,-3.8794,-3.8729,-3.8771,-3.8706,-3.8743,-3.8708,-3.8834,-3.8796,-3.8838,-3.8828,-3.8938,-3.893,-3.9305,-3.935,-3.8986,-3.8989,-3.8992,0,-3.8875,-3.8942,-3.8903,-3.8928,-3.8919,-3.8961,-3.8978,-3.8895,-3.8917,-3.8909,-3.8962,-3.8995,-3.9018,-3.9092,-3.9049,-3.9076,-3.9039,-3.9169,-3.9043,-3.9065,-3.9043,-3.904,-3.9047,-3.9196,-3.92,-3.9204,-3.9206,0,-3.9189,-3.9153,-3.9181,-3.9199,-3.9222,-3.9232,-3.9235,-3.9262,-3.9173,-3.9204,-3.9245,-3.9263,-3.9298,-3.9334,-3.935,-3.9336,-3.9259,-3.9246,-3.9272,-3.9299,-3.9321,-3.9312,-3.891,-3.9238,-3.9235,-3.9233,-3.9231,-3.923,-3.9428,-3.9482,-3.9462,-3.9497,-3.949,-3.9494,-3.954,-3.9503,-3.9535,-3.9556,-3.9505,-3.9559,-3.9546,-3.9559,-3.9554,-3.9596,-3.954,-3.9578,-3.9587,-3.9599,-3.9616,-3.9313,-3.9599,-3.9598,-3.9597,-3.9596,-3.9595,0,-3.9738,-3.9719,-3.9751,-3.9757,-3.9785,-3.9705,-3.9704,-3.9733,-3.9781,-3.9775,-3.9798,-3.9847,-3.988,-3.9839,-3.9866,-3.9908,-3.9872,-3.9918,-3.9914,-3.9913,-3.9665,-3.964,-3.9946,-3.9945,-3.9945,-3.9945,-3.9945,-3.9945,-3.9902,-3.999,-3.9952,-4.0035,-4.0015,-4.0066,-4.0073,-4.0077,-4.0071,-4.0128,-4.0155,-4.0127,-4.0107,-4.0131,-4.0159,-4.0146,-4.0161,-4.022,-4.0195,-3.9965,-3.993,-3.9898,-3.9874,-4.0223,-4.0224,-4.0439,-4.0441,-4.0443]},{"header":{"parameterUnit":"m.s-1","parameterCategory":1,"la1":30.2991,"la2":30.254,"lo1":-89.0895,"lo2":-89.0444,"dy":0.0017,"dx":0.0017,"nx":28,"ny":28,"refTime":"2025-02-24T03:00:00:Z","depth":0,"parameterNumber":3,"parameterNumberName":"V-component_of_WINDS"},"data":[0,0,0,0,0,0,0,0,0,0,0,0,0,0,0,0,0,0,0,0,0,0,0,0,0,0,0,0,0,0,0,0,0,0,0,0,0,0,0,0,0,0,0,0,0,0,0,0,0,0,0,0,0,0,0,0,0,0,-3.4154,-3.4154,0,-3.4125,-3.4125,-3.4124,-3.4141,-3.4142,-3.4143,-3.4144,-3.4107,-3.4106,-3.4104,0,0,0,0,0,0,0,0,0,0,0,0,0,-3.4217,-3.4216,-3.4154,-3.4154,-3.4153,-3.4125,-3.4125,-3.4124,-3.4141,-3.4142,-3.4143,-3.4144,-3.4108,-3.4106,-3.4104,0,0,0,0,0,0,0,0,0,0,0,0,0,-3.4189,-3.4215,-3.4154,-3.4159,-3.4159,-3.4125,-3.4125,-3.4124,-3.4141,-3.4142,-3.4143,-3.4145,-3.4108,-3.4106,-3.4103,-3.4062,0,0,-3.4095,-3.4094,0,0,0,0,0,0,0,0,-3.419,-3.4186,-3.4158,-3.4158,-3.4158,-3.4138,-3.4133,-3.4103,-3.4141,-3.4147,-3.4144,-3.4145,-3.4116,-3.4113,-3.4104,-3.406,-3.4058,-3.4095,-3.4093,-3.4092,-3.4092,0,0,0,0,0,0,0,-3.4192,-3.4188,-3.4142,-3.4158,-3.4158,-3.4159,-3.4157,-3.4128,-3.4125,-3.4147,-3.4148,-3.4145,-3.4116,-3.4107,-3.4104,-3.4058,-3.4095,-3.4093,-3.4091,-3.409,-3.3973,-3.3972,0,0,0,0,0,0,-3.4195,-3.4189,-3.4143,-3.4141,-3.4178,-3.4157,-3.4154,-3.4143,-3.4125,-3.4124,-3.4144,-3.4146,-3.4111,-3.4107,-3.4102,-3.4049,-3.4092,-3.409,-3.4088,-3.3975,-3.3973,-3.3971,0,0,0,0,0,0,-3.4196,-3.4191,-3.4144,-3.4166,-3.416,-3.4155,-3.4142,-3.4142,-3.4133,-3.4123,-3.4122,-3.4135,-3.4112,-3.4106,-3.4071,-3.4048,-3.4089,-3.4086,-3.3977,-3.3974,-3.3972,-3.3944,0,0,0,0,0,0,-3.4198,-3.4191,-3.4177,-3.4165,-3.4159,-3.4116,-3.4141,-3.414,-3.4129,-3.4131,-3.4115,-3.4113,-3.4112,-3.4075,-3.4069,-3.4045,-3.4084,-3.3979,-3.3976,-3.3973,-3.3947,-3.3941,-3.3936,0,0,0,0,0,-3.42,-3.417,-3.4176,-3.417,-3.4141,-3.4115,-3.4111,-3.4112,-3.4127,-3.4111,-3.4105,-3.4113,-3.4053,-3.4071,-3.4064,-3.404,-3.398,-3.3976,-3.3973,-3.3949,-3.3942,-3.3936,0,0,0,0,0,0,-3.4177,-3.4168,-3.4175,-3.4141,-3.4128,-3.4118,-3.4098,-3.4105,-3.4087,-3.4089,-3.4091,-3.4087,-3.4049,-3.4042,-3.4063,-3.3996,-3.4018,-3.4013,-3.4003,-3.3996,-3.399,-3.3991,-3.4082,0,0,0,0,0,-3.4168,-3.4149,-3.4142,-3.4112,-3.4106,-3.4103,-3.4091,-3.4094,-3.408,-3.4074,-3.4065,-3.405,-3.4027,-3.4011,-3.399,-3.3947,-3.3941,-3.3926,-3.3921,-3.3917,-3.3911,-3.3883,-3.3875,-3.396,-3.396,-3.396,0,0,-3.4149,-3.4142,-3.4129,-3.4107,-3.4098,-3.4075,-3.4098,-3.4074,-3.4056,-3.407,-3.4036,-3.4029,-3.4011,-3.3971,-3.3953,-3.3963,-3.3887,-3.3912,-3.3909,-3.3905,-3.3879,-3.3871,-3.3864,-3.3958,-3.3958,-3.3959,0,0,-3.4101,-3.4096,-3.4069,-3.4059,-3.4046,-3.4044,-3.4037,-3.4025,-3.4021,-3.3988,-3.3997,-3.3974,-3.3936,-3.3922,-3.391,-3.3856,-3.3861,-3.3849,-3.3819,-3.3792,-3.3785,-3.3779,-3.3756,-3.3748,-3.3844,-3.3844,-3.3844,0,-3.4078,-3.4047,-3.4053,-3.4028,-3.4016,-3.403,-3.4,-3.399,-3.3969,-3.3959,-3.3972,-3.3922,-3.3912,-3.3866,-3.3853,-3.3844,-3.3833,-3.3849,-3.3786,-3.378,-3.3775,-3.3752,-3.3744,-3.3842,-3.3843,-3.3843,-3.3843,0,-3.4018,-3.3996,-3.3975,-3.3956,-3.3942,-3.3915,-3.3914,-3.3899,-3.3902,-3.3898,-3.3861,-3.385,-3.3824,-3.3814,-3.3818,-3.3768,-3.3775,-3.3787,-3.3808,-3.3765,-3.3743,-3.3735,-3.384,-3.3841,-3.3841,-3.3842,0,0,-3.3953,-3.3938,-3.393,-3.392,-3.3905,-3.3887,-3.3859,-3.3836,-3.3821,-3.3806,-3.378,-3.3746,-3.3757,-3.3743,-3.3745,-3.3722,-3.3674,-3.3736,-3.3736,-3.3721,-3.3614,-3.3601,-3.3591,-3.3679,-3.3678,-3.3677,-3.3614,0,-3.3901,-3.3855,-3.3859,-3.3813,-3.379,-3.3803,-3.3778,-3.3764,-3.376,-3.3737,-3.3732,-3.3706,-3.3725,-3.3716,-3.3694,-3.3685,-3.3652,-3.369,-3.365,-3.3649,-3.365,-3.3581,-3.3568,-3.3509,-3.3606,-3.3604,-3.3603,0,-3.3835,-3.3819,-3.3771,-3.3758,-3.3749,-3.3726,-3.3704,-3.3685,-3.3668,-3.3666,-3.365,-3.3655,-3.3622,-3.3647,-3.36,-3.3626,-3.361,-3.3603,-3.3601,-3.3593,-3.362,-3.3567,-3.3491,-3.348,-3.3591,-3.3592,-3.3593,0,-3.3787,-3.3754,-3.372,-3.3712,-3.3697,-3.368,-3.3672,-3.3658,-3.3643,-3.3623,-3.3612,-3.3588,-3.3574,-3.3554,-3.355,-3.3569,-3.3501,-3.3527,-3.3494,-3.3494,-3.3476,-3.3476,-3.3391,-3.3473,-3.3473,-3.3474,-3.3474,0,-3.3727,-3.3696,-3.3698,-3.3677,-3.3641,-3.3646,-3.361,-3.3604,-3.359,-3.3565,-3.3575,-3.355,-3.355,-3.3524,-3.3521,-3.3479,-3.3474,-3.3468,-3.3466,-3.3464,-3.3464,-3.3451,-3.3453,-3.3471,-3.3472,-3.3472,-3.3473,0,-3.3666,-3.3667,-3.363,-3.3619,-3.3616,-3.359,-3.3578,-3.3556,-3.3553,-3.3521,-3.3513,-3.3507,-3.3476,-3.3472,-3.3436,-3.3434,-3.3383,-3.3388,-3.3388,-3.3388,-3.3354,-3.3355,-3.3253,-3.3238,-3.3334,-3.3333,-3.3333,0,-3.3626,-3.3602,-3.3589,-3.3574,-3.3566,-3.3542,-3.3527,-3.353,-3.3513,-3.3492,-3.3471,-3.3443,-3.3419,-3.3369,-3.3359,-3.333,-3.3332,-3.3299,-3.3327,-3.3325,-3.3325,-3.3325,-3.332,-3.3291,-3.329,-3.3289,-3.3289,0,-3.3552,-3.3553,-3.3533,-3.3511,-3.3494,-3.3477,-3.346,-3.3447,-3.3447,-3.3427,-3.3397,-3.338,-3.3343,-3.3312,-3.3284,-3.3272,-3.3278,-3.328,-3.327,-3.3265,-3.3265,-3.3259,-3.3368,-3.3282,-3.3282,-3.3283,-3.3283,-3.3283,-3.3497,-3.3475,-3.3462,-3.3438,-3.3426,-3.3411,-3.3388,-3.3383,-3.3359,-3.333,-3.3333,-3.3299,-3.328,-3.3243,-3.3229,-3.32,-3.321,-3.3197,-3.3193,-3.3188,-3.3182,-3.3274,-3.3195,-3.3196,-3.3196,-3.3196,-3.3196,0,-3.342,-3.3412,-3.339,-3.3367,-3.3347,-3.3359,-3.3341,-3.3322,-3.3293,-3.3276,-3.3253,-3.3217,-3.3187,-3.3174,-3.3143,-3.3122,-3.3123,-3.3113,-3.3112,-3.3108,-3.3178,-3.3187,-3.3112,-3.3112,-3.3112,-3.3112,-3.3112,-3.3112,-3.3377,-3.334,-3.3339,-3.3295,-3.3287,-3.3255,-3.3243,-3.3227,-3.3213,-3.3173,-3.3149,-3.3142,-3.3125,-3.3094,-3.3065,-3.3062,-3.3047,-3.3035,-3.3032,-3.3096,-3.3104,-3.3112,-3.3121,-3.3033,-3.3033,-3.2964,-3.2964,-3.2963]}]]